Weather History for Eagle, AK

Change the Weather History Date:

Saturday, August 24, 2013

  Actual Average (PABN) Record (PABN)
Temperature  
Mean Temperature 44 °F -  
Max Temperature 53 °F 53 °F 64 °F (2004)
Min Temperature 32 °F 42 °F 37 °F (2006)
Degree Days  
Heating Degree Days 21    
Moisture  
Dew Point 32 °F    
Average Humidity 58    
Maximum Humidity 82    
Minimum Humidity 43    
Precipitation  
Precipitation 0.00 in - - ()
Sea Level Pressure  
Sea Level Pressure 29.81 in    
Wind  
Wind Speed 6 mph (NNE)    
Max Wind Speed 15 mph    
Max Gust Speed 24 mph    
Visibility 10 miles    
Events      
Averages and records for this station are not official NWS values.
T = Trace of Precipitation, MM = Missing Value Source: NWS Daily Summary

Daily Weather History Graph

Daily Weather History Graph

Search for Another Location

Airport:

Trip Planner

Search our weather history database for the weather conditions in past years. The results will help you decide how hot, cold, wet, or windy it might be!

Date:

Astronomy

Aug. 24, 2013 Rise Set
Actual Time 5:41 AM AKDT 9:10 PM AKDT
Civil Twilight 4:41 AM AKDT 10:08 PM AKDT
Nautical Twilight 3:06 AM AKDT 11:41 PM AKDT
Astronomical Twilight Sun does not rise Sun does not rise
Moon 9:06 PM AKDT (8/24) 11:46 AM AKDT (8/24)
Length of Visible Light 17h 27m
Length of Day
15h 28m
Waning Gibbous, 83% of the Moon is Illuminated
Aug 24
Waning Gibbous
Aug 28
Last Quarter
Sep 5
New
Sep 12
First Quarter
Sep 19
Full

Hourly Weather History & Observations

Time (AKDT) Temp. Windchill Dew Point Humidity Pressure Visibility Wind Dir Wind Speed Gust Speed Precip Events Conditions
12:53 AM 46.9 °F - 39.0 °F 74% 29.64 in 10.0 mi Variable 6.9 mph - N/A   Overcast
1:53 AM 46.9 °F - 37.9 °F 71% 29.66 in 10.0 mi North 3.5 mph - N/A   Overcast
2:53 AM 46.0 °F 43.9 °F 39.0 °F 76% 29.68 in 10.0 mi North 4.6 mph - N/A   Overcast
3:53 AM 46.0 °F 44.8 °F 37.0 °F 71% 29.69 in 10.0 mi North 3.5 mph - N/A   Overcast
4:53 AM 46.9 °F - 35.1 °F 63% 29.71 in 10.0 mi NNE 3.5 mph - N/A   Overcast
5:53 AM 46.0 °F 44.8 °F 35.1 °F 66% 29.73 in 10.0 mi North 3.5 mph - N/A   Overcast
6:53 AM 46.0 °F 44.8 °F 34.0 °F 63% 29.75 in 10.0 mi North 3.5 mph - N/A   Overcast
7:53 AM 46.9 °F - 33.1 °F 59% 29.77 in 10.0 mi North 8.1 mph - N/A   Mostly Cloudy
8:53 AM 46.9 °F - 30.9 °F 54% 29.79 in 10.0 mi North 9.2 mph - N/A   Mostly Cloudy
9:53 AM 48.9 °F - 30.0 °F 48% 29.80 in 10.0 mi NNE 8.1 mph - N/A   Overcast
10:53 AM 51.1 °F - 30.9 °F 46% 29.81 in 10.0 mi NNW 15.0 mph 24.2 mph N/A   Overcast
11:53 AM 50.0 °F - 30.0 °F 46% 29.83 in 10.0 mi North 10.4 mph 17.3 mph N/A   Overcast
12:53 PM 50.0 °F - 30.9 °F 48% 29.83 in 10.0 mi North 8.1 mph 17.3 mph N/A   Overcast
1:53 PM 50.0 °F - 30.9 °F 48% 29.84 in 10.0 mi North 12.7 mph 17.3 mph N/A   Overcast
2:53 PM 51.1 °F - 30.0 °F 44% 29.85 in 10.0 mi NE 12.7 mph 21.9 mph N/A   Overcast
3:53 PM 53.1 °F - 30.9 °F 43% 29.86 in 10.0 mi NNE 6.9 mph 16.1 mph N/A   Overcast
4:53 PM 52.0 °F - 30.0 °F 43% 29.86 in 10.0 mi NNE 10.4 mph 19.6 mph N/A   Mostly Cloudy
5:53 PM 51.1 °F - 30.0 °F 44% 29.88 in 10.0 mi North 8.1 mph - N/A   Mostly Cloudy
6:53 PM 48.0 °F - 28.9 °F 48% 29.89 in 10.0 mi NNE 6.9 mph - N/A   Clear
7:53 PM 45.0 °F 40.6 °F 28.9 °F 53% 29.90 in 10.0 mi NNE 8.1 mph - N/A   Clear
8:53 PM 43.0 °F 39.5 °F 27.0 °F 53% 29.92 in 10.0 mi East 5.8 mph - N/A   Partly Cloudy
9:53 PM 41.0 °F 39.0 °F 28.0 °F 60% 29.94 in 10.0 mi Variable 3.5 mph - N/A   Scattered Clouds
10:53 PM 35.1 °F - 28.9 °F 78% 29.95 in 10.0 mi Calm Calm - N/A   Scattered Clouds
11:53 PM 32.0 °F - 27.0 °F 82% 29.96 in 10.0 mi Calm Calm - N/A   Overcast